• In Uzbekistan
  • List of Countries
  • For 7 days
  • Water Temperature
  • Satellite Maps
  • Weather Map
  • Weather Widgets
  • user-avatar
    Login

    Hourly Weather Santiago de Cuba

    Today, 12 December, Tuesday

    Time Temperature Precipitation Wind Pressure Humidity
    00:00 +23°C° 0 mm 4 mps 757 mmHg 92%
    01:00 +24°C° 0 mm 3 mps 757 mmHg 92%
    02:00 +24°C° 0 mm 3 mps 757 mmHg 92%
    03:00 +24°C° 0 mm 3 mps 757 mmHg 92%
    04:00 +24°C° 0 mm 3 mps 757 mmHg 93%
    05:00 +24°C° 0.1 mm 3 mps 757 mmHg 93%
    06:00 +24°C° 0.1 mm 3 mps 757 mmHg 93%
    07:00 +24°C° 0.1 mm 3 mps 757 mmHg 93%
    08:00 +25°C° 0.1 mm 3 mps 758 mmHg 90%
    09:00 +26°C° 0.1 mm 3 mps 758 mmHg 87%
    10:00 +26°C° 0.1 mm 3 mps 758 mmHg 84%
    11:00 +27°C° 0.3 mm 3 mps 758 mmHg 82%
    12:00 +27°C° 0.3 mm 3 mps 757 mmHg 81%
    13:00 +27°C° 0.3 mm 3 mps 757 mmHg 80%
    14:00 +27°C° 0.2 mm 3 mps 757 mmHg 81%
    15:00 +26°C° 0.2 mm 3 mps 756 mmHg 82%
    16:00 +26°C° 0.2 mm 3 mps 756 mmHg 83%
    17:00 +25°C° 0 mm 3 mps 757 mmHg 85%
    18:00 +25°C° 0 mm 3 mps 757 mmHg 86%
    19:00 +24°C° 0 mm 3 mps 758 mmHg 87%
    20:00 +24°C° 0 mm 3 mps 758 mmHg 87%
    21:00 +24°C° 0 mm 3 mps 758 mmHg 87%
    22:00 +22°C° 0 mm 3 mps 758 mmHg 87%
    23:00 +22°C° 0 mm 3 mps 758 mmHg 87%

    Tomorrow, 13 December, Wednesday

    Time Temperature Precipitation Wind Pressure Humidity
    00:00 +22°C° 0 mm 4 mps 758 mmHg 88%
    01:00 +22°C° 0 mm 4 mps 758 mmHg 88%
    02:00 +22°C° 0 mm 3 mps 758 mmHg 88%
    03:00 +21°C° 0 mm 3 mps 757 mmHg 88%
    04:00 +21°C° 0 mm 3 mps 757 mmHg 88%
    05:00 +21°C° 0 mm 3 mps 758 mmHg 88%
    06:00 +21°C° 0 mm 3 mps 758 mmHg 88%
    07:00 +21°C° 0 mm 3 mps 759 mmHg 88%
    08:00 +22°C° 0 mm 3 mps 759 mmHg 81%
    09:00 +25°C° 0 mm 3 mps 760 mmHg 75%
    10:00 +26°C° 0 mm 3 mps 760 mmHg 69%
    11:00 +27°C° 0 mm 3 mps 760 mmHg 66%
    12:00 +28°C° 0 mm 3 mps 759 mmHg 64%
    13:00 +28°C° 0 mm 3 mps 759 mmHg 62%
    14:00 +28°C° 0 mm 3 mps 759 mmHg 63%
    15:00 +27°C° 0 mm 3 mps 758 mmHg 64%
    16:00 +27°C° 0 mm 3 mps 758 mmHg 65%
    17:00 +25°C° 0 mm 3 mps 758 mmHg 68%
    18:00 +24°C° 0 mm 3 mps 759 mmHg 70%
    19:00 +22°C° 0 mm 3 mps 759 mmHg 73%
    20:00 +21°C° 0 mm 3 mps 759 mmHg 74%
    21:00 +21°C° 0 mm 3 mps 760 mmHg 76%
    22:00 +20°C° 0 mm 3 mps 760 mmHg 77%
    23:00 +20°C° 0 mm 2 mps 759 mmHg 79%

    Day after tomorrow, 14 December, Thursday

    Time Temperature Precipitation Wind Pressure Humidity
    00:00 +20°C° 0 mm 2 mps 759 mmHg 80%
    01:00 +20°C° 0 mm 2 mps 759 mmHg 81%
    02:00 +20°C° 0 mm 2 mps 759 mmHg 80%
    03:00 +21°C° 0 mm 2 mps 758 mmHg 79%
    04:00 +21°C° 0 mm 2 mps 758 mmHg 78%
    05:00 +21°C° 0 mm 2 mps 758 mmHg 78%
    06:00 +21°C° 0 mm 2 mps 759 mmHg 78%
    07:00 +23°C° 0 mm 2 mps 759 mmHg 78%
    08:00 +24°C° 0 mm 2 mps 760 mmHg 74%
    09:00 +26°C° 0 mm 2 mps 760 mmHg 70%
    10:00 +27°C° 0 mm 2 mps 760 mmHg 66%
    11:00 +28°C° 0 mm 2 mps 760 mmHg 64%
    12:00 +29°C° 0 mm 2 mps 759 mmHg 62%
    13:00 +31°C° 0 mm 2 mps 758 mmHg 60%
    14:00 +30°C° 0 mm 2 mps 758 mmHg 64%
    15:00 +29°C° 0 mm 2 mps 758 mmHg 68%
    16:00 +28°C° 0 mm 2 mps 758 mmHg 72%
    17:00 +27°C° 0 mm 2 mps 758 mmHg 76%
    18:00 +26°C° 0 mm 2 mps 758 mmHg 81%
    19:00 +25°C° 0 mm 2 mps 759 mmHg 85%
    20:00 +24°C° 0 mm 2 mps 759 mmHg 86%
    21:00 +24°C° 0 mm 2 mps 759 mmHg 88%
    22:00 +24°C° 0 mm 2 mps 759 mmHg 90%
    23:00 +23°C° 0 mm 2 mps 759 mmHg 90%

    15 December, Friday

    Time Temperature Precipitation Wind Pressure Humidity
    00:00 +23°C° 0 mm 2 mps 759 mmHg 91%
    01:00 +23°C° 0 mm 2 mps 758 mmHg 91%
    02:00 +23°C° 0 mm 2 mps 758 mmHg 91%
    03:00 +23°C° 0 mm 2 mps 758 mmHg 91%
    04:00 +23°C° 0 mm 2 mps 758 mmHg 91%
    05:00 +23°C° 0 mm 2 mps 758 mmHg 90%
    06:00 +23°C° 0 mm 2 mps 759 mmHg 90%
    07:00 +24°C° 0 mm 2 mps 759 mmHg 89%
    08:00 +26°C° 0 mm 2 mps 759 mmHg 81%
    09:00 +28°C° 0 mm 2 mps 759 mmHg 73%
    10:00 +31°C° 0 mm 2 mps 760 mmHg 65%
    11:00 +31°C° 0 mm 2 mps 759 mmHg 62%
    12:00 +32°C° 0 mm 2 mps 759 mmHg 59%
    13:00 +34°C° 0 mm 2 mps 758 mmHg 57%
    14:00 +32°C° 0 mm 2 mps 758 mmHg 61%
    15:00 +31°C° 0 mm 1 mps 758 mmHg 65%
    16:00 +31°C° 0 mm 1 mps 757 mmHg 68%
    17:00 +29°C° 0 mm 1 mps 758 mmHg 76%
    18:00 +27°C° 0 mm 1 mps 758 mmHg 84%
    19:00 +24°C° 0 mm 0 mps 759 mmHg 91%
    20:00 +26°C° 0 mm 1 mps 759 mmHg 92%
    21:00 +25°C° 0 mm 1 mps 760 mmHg 92%
    22:00 +25°C° 0 mm 1 mps 760 mmHg 92%
    23:00 +25°C° 0 mm 1 mps 760 mmHg 92%

    16 December, Saturday

    Time Temperature Precipitation Wind Pressure Humidity
    00:00 +25°C° 0 mm 1 mps 760 mmHg 92%
    01:00 +25°C° 0 mm 2 mps 759 mmHg 92%
    02:00 +25°C° 0 mm 2 mps 759 mmHg 93%
    03:00 +25°C° 0 mm 2 mps 759 mmHg 93%
    04:00 +25°C° 0 mm 2 mps 759 mmHg 94%
    05:00 +25°C° 0 mm 2 mps 760 mmHg 94%
    06:00 +25°C° 0 mm 2 mps 760 mmHg 95%
    07:00 +25°C° 0 mm 2 mps 760 mmHg 95%
    08:00 +26°C° 0 mm 3 mps 761 mmHg 89%
    09:00 +27°C° 0 mm 3 mps 761 mmHg 84%
    10:00 +29°C° 0 mm 3 mps 761 mmHg 78%
    11:00 +28°C° 0.1 mm 3 mps 761 mmHg 78%
    12:00 +28°C° 0.1 mm 3 mps 760 mmHg 78%
    13:00 +28°C° 0.1 mm 3 mps 760 mmHg 78%
    14:00 +28°C° 0 mm 3 mps 759 mmHg 77%
    15:00 +28°C° 0 mm 3 mps 759 mmHg 76%
    16:00 +28°C° 0 mm 4 mps 759 mmHg 75%
    17:00 +27°C° 0 mm 3 mps 759 mmHg 78%
    18:00 +26°C° 0 mm 3 mps 760 mmHg 82%
    19:00 +25°C° 0 mm 3 mps 760 mmHg 85%
    20:00 +25°C° 0 mm 3 mps 760 mmHg 86%
    21:00 +25°C° 0 mm 3 mps 760 mmHg 88%
    22:00 +25°C° 0 mm 3 mps 760 mmHg 90%
    23:00 +25°C° 0 mm 3 mps 760 mmHg 91%

    17 December, Sunday

    Time Temperature Precipitation Wind Pressure Humidity
    00:00 +25°C° 0 mm 3 mps 759 mmHg 92%
    01:00 +25°C° 0 mm 3 mps 759 mmHg 94%
    02:00 +25°C° 0 mm 3 mps 759 mmHg 94%
    03:00 +25°C° 0 mm 3 mps 759 mmHg 94%
    04:00 +25°C° 0 mm 3 mps 758 mmHg 95%
    05:00 +25°C° 0 mm 3 mps 759 mmHg 94%
    06:00 +25°C° 0 mm 3 mps 759 mmHg 93%
    07:00 +26°C° 0 mm 3 mps 760 mmHg 92%
    08:00 +27°C° 0 mm 3 mps 760 mmHg 85%
    09:00 +29°C° 0 mm 4 mps 760 mmHg 78%
    10:00 +30°C° 0 mm 4 mps 760 mmHg 71%
    11:00 +32°C° 0 mm 4 mps 760 mmHg 69%
    12:00 +32°C° 0 mm 4 mps 759 mmHg 67%
    13:00 +33°C° 0 mm 4 mps 759 mmHg 65%
    14:00 +32°C° 0 mm 4 mps 759 mmHg 65%
    15:00 +32°C° 0 mm 4 mps 758 mmHg 65%
    16:00 +32°C° 0 mm 4 mps 758 mmHg 65%
    17:00 +29°C° 0 mm 4 mps 758 mmHg 71%
    18:00 +28°C° 0 mm 3 mps 759 mmHg 76%
    19:00 +26°C° 0 mm 3 mps 759 mmHg 82%
    20:00 +26°C° 0 mm 3 mps 760 mmHg 84%
    21:00 +25°C° 0 mm 3 mps 760 mmHg 86%
    22:00 +25°C° 0 mm 3 mps 760 mmHg 88%
    23:00 +25°C° 0 mm 3 mps 760 mmHg 90%
    Show more